TimeCDT,TemperatureF,Dew PointF,Humidity,Sea Level PressureIn,VisibilityMPH,Wind Direction,Wind SpeedMPH,Gust SpeedMPH,PrecipitationIn,Events,Conditions,WindDirDegrees,DateUTC
12:15 AM,35.6,35.6,100,29.81,7.0,Calm,Calm,-,N/A,,Clear,0,2012-09-21 05:15:00
12:35 AM,37.4,37.4,100,29.81,2.5,Calm,Calm,-,N/A,,Scattered Clouds,0,2012-09-21 05:35:00
12:55 AM,37.4,37.4,100,29.81,10.0,Calm,Calm,-,N/A,,Mostly Cloudy,0,2012-09-21 05:55:00
1:15 AM,37.4,37.4,100,29.81,10.0,WSW,3.5,-,N/A,,Overcast,250,2012-09-21 06:15:00
1:35 AM,37.4,37.4,100,29.81,10.0,WSW,5.8,-,N/A,,Overcast,240,2012-09-21 06:35:00
1:55 AM,37.4,37.4,100,29.81,10.0,WSW,3.5,-,N/A,,Overcast,240,2012-09-21 06:55:00
2:15 AM,39.2,39.2,100,29.80,10.0,SW,5.8,-,N/A,,Light Drizzle,230,2012-09-21 07:15:00
2:35 AM,41.0,41.0,100,29.80,10.0,WSW,4.6,-,N/A,Rain,Light Rain,250,2012-09-21 07:35:00
2:55 AM,42.8,41.0,93,29.79,7.0,West,3.5,-,0.03,Rain,Heavy Rain,270,2012-09-21 07:55:00
3:15 AM,41.0,41.0,100,29.79,10.0,WSW,3.5,-,0.03,Rain,Rain,250,2012-09-21 08:15:00
3:35 AM,41.0,41.0,100,29.79,7.0,West,5.8,-,0.06,Rain,Rain,270,2012-09-21 08:35:00
3:55 AM,41.0,41.0,100,29.78,10.0,Calm,Calm,-,0.08,Rain,Light Rain,0,2012-09-21 08:55:00
4:15 AM,41.0,41.0,100,29.78,10.0,WSW,3.5,-,0.01,Rain,Light Rain,240,2012-09-21 09:15:00
4:35 AM,41.0,41.0,100,29.78,10.0,WSW,4.6,-,0.03,Rain,Rain,240,2012-09-21 09:35:00
4:55 AM,41.0,41.0,100,29.77,10.0,WSW,5.8,-,0.05,Rain,Rain,240,2012-09-21 09:55:00
5:15 AM,41.0,41.0,100,29.77,10.0,WSW,4.6,-,N/A,Rain,Light Rain,240,2012-09-21 10:15:00
5:35 AM,41.0,41.0,100,29.76,7.0,WSW,4.6,-,0.01,Rain,Light Rain,240,2012-09-21 10:35:00
5:55 AM,41.0,41.0,100,29.76,7.0,WSW,6.9,-,0.02,Rain,Light Rain,250,2012-09-21 10:55:00
6:15 AM,41.0,41.0,100,29.76,10.0,WSW,5.8,-,N/A,,Overcast,250,2012-09-21 11:15:00
6:35 AM,42.8,42.8,100,29.76,10.0,WSW,5.8,-,N/A,Rain,Light Rain,250,2012-09-21 11:35:00
6:55 AM,42.8,42.8,100,29.76,10.0,West,5.8,-,N/A,Rain,Rain,260,2012-09-21 11:55:00
7:15 AM,42.8,42.8,100,29.76,10.0,WSW,4.6,-,N/A,,Overcast,250,2012-09-21 12:15:00
7:35 AM,42.8,42.8,100,29.76,10.0,WSW,4.6,-,N/A,,Overcast,250,2012-09-21 12:35:00
7:55 AM,42.8,42.8,100,29.76,4.0,West,5.8,-,0.01,Rain,Rain,260,2012-09-21 12:55:00
8:15 AM,42.8,42.8,100,29.76,7.0,West,4.6,-,N/A,Rain,Light Rain,270,2012-09-21 13:15:00
8:35 AM,42.8,42.8,100,29.77,10.0,West,6.9,-,N/A,,Overcast,270,2012-09-21 13:35:00
8:55 AM,44.6,42.8,93,29.78,10.0,West,6.9,-,N/A,,Mostly Cloudy,280,2012-09-21 13:55:00
9:15 AM,44.6,42.8,93,29.78,10.0,WNW,5.8,-,N/A,,Mostly Cloudy,290,2012-09-21 14:15:00
9:35 AM,44.6,42.8,93,29.78,10.0,WNW,8.1,-,N/A,,Overcast,300,2012-09-21 14:35:00
9:55 AM,46.4,42.8,87,29.77,10.0,West,8.1,20.7,N/A,,Scattered Clouds,270,2012-09-21 14:55:00
10:15 AM,46.4,41.0,81,29.77,10.0,WNW,10.4,-,N/A,,Mostly Cloudy,290,2012-09-21 15:15:00
10:35 AM,46.4,37.4,71,29.76,10.0,WNW,10.4,17.3,N/A,,Mostly Cloudy,290,2012-09-21 15:35:00
10:55 AM,48.2,37.4,66,29.76,10.0,WNW,9.2,18.4,N/A,,Mostly Cloudy,300,2012-09-21 15:55:00
11:15 AM,50.0,35.6,58,29.76,10.0,WSW,11.5,-,N/A,,Mostly Cloudy,250,2012-09-21 16:15:00
11:35 AM,50.0,35.6,58,29.76,10.0,NW,10.4,20.7,N/A,,Mostly Cloudy,320,2012-09-21 16:35:00
11:55 AM,50.0,35.6,58,29.77,10.0,West,12.7,17.3,N/A,,Overcast,270,2012-09-21 16:55:00
12:15 PM,50.0,35.6,58,29.76,10.0,West,6.9,16.1,N/A,,Overcast,280,2012-09-21 17:15:00
12:35 PM,50.0,37.4,62,29.76,10.0,West,6.9,-,N/A,,Mostly Cloudy,280,2012-09-21 17:35:00
12:55 PM,51.8,35.6,54,29.76,10.0,WSW,9.2,-,N/A,,Mostly Cloudy,240,2012-09-21 17:55:00
1:15 PM,44.6,37.4,76,29.76,4.0,West,3.5,-,0.02,Rain,Light Rain,270,2012-09-21 18:15:00
1:35 PM,46.4,37.4,71,29.78,7.0,NNW,20.7,24.2,0.03,Rain,Heavy Rain,330,2012-09-21 18:35:00
1:55 PM,50.0,41.0,71,29.75,10.0,SW,4.6,-,0.04,,Mostly Cloudy,220,2012-09-21 18:55:00
2:15 PM,51.8,35.6,54,29.75,10.0,SW,8.1,-,N/A,,Scattered Clouds,230,2012-09-21 19:15:00
2:35 PM,51.8,35.6,54,29.75,10.0,WSW,9.2,18.4,N/A,,Scattered Clouds,240,2012-09-21 19:35:00
2:55 PM,48.2,33.8,58,29.76,10.0,West,17.3,25.3,N/A,Rain,Light Rain,280,2012-09-21 19:55:00
3:15 PM,46.4,35.6,66,29.77,10.0,SW,8.1,-,N/A,,Mostly Cloudy,230,2012-09-21 20:15:00
3:35 PM,44.6,37.4,76,29.76,10.0,WSW,8.1,-,N/A,Rain,Heavy Rain,250,2012-09-21 20:35:00
3:55 PM,44.6,37.4,76,29.76,10.0,West,3.5,-,0.09,,Mostly Cloudy,270,2012-09-21 20:55:00
4:15 PM,46.4,39.2,76,29.75,10.0,WNW,3.5,-,N/A,,Mostly Cloudy,290,2012-09-21 21:15:00
4:35 PM,46.4,41.0,81,29.75,10.0,West,3.5,-,N/A,,Mostly Cloudy,280,2012-09-21 21:35:00
4:55 PM,46.4,37.4,71,29.75,10.0,West,4.6,-,N/A,,Mostly Cloudy,270,2012-09-21 21:55:00
5:15 PM,46.4,37.4,71,29.75,10.0,West,4.6,-,N/A,,Mostly Cloudy,260,2012-09-21 22:15:00
5:35 PM,48.2,35.6,62,29.75,10.0,West,5.8,-,N/A,,Overcast,260,2012-09-21 22:35:00
5:55 PM,48.2,35.6,62,29.75,10.0,West,4.6,-,N/A,,Overcast,280,2012-09-21 22:55:00
6:15 PM,48.2,37.4,66,29.75,10.0,WNW,3.5,-,N/A,,Mostly Cloudy,290,2012-09-21 23:15:00
6:35 PM,46.4,35.6,66,29.75,10.0,Calm,Calm,-,N/A,,Scattered Clouds,0,2012-09-21 23:35:00
6:55 PM,42.8,39.2,87,29.75,10.0,Calm,Calm,-,N/A,,Clear,0,2012-09-21 23:55:00
7:15 PM,41.0,41.0,100,29.76,10.0,North,3.5,-,N/A,,Clear,360,2012-09-22 00:15:00
7:35 PM,37.4,37.4,100,29.76,7.0,Calm,Calm,-,N/A,,Clear,0,2012-09-22 00:35:00
7:55 PM,37.4,37.4,100,29.76,10.0,Calm,Calm,-,N/A,,Clear,0,2012-09-22 00:55:00
8:15 PM,33.8,33.8,100,29.76,4.0,Calm,Calm,-,N/A,,Clear,0,2012-09-22 01:15:00
8:35 PM,35.6,35.6,100,29.76,10.0,WSW,3.5,-,N/A,,Clear,240,2012-09-22 01:35:00
8:55 PM,35.6,35.6,100,29.76,5.0,Calm,Calm,-,N/A,,Clear,0,2012-09-22 01:55:00
9:15 PM,33.8,33.8,100,29.76,0.8,Calm,Calm,-,N/A,,Scattered Clouds,0,2012-09-22 02:15:00
9:35 PM,33.8,33.8,100,29.76,1.5,Calm,Calm,-,N/A,,Scattered Clouds,0,2012-09-22 02:35:00
9:55 PM,33.8,33.8,100,29.75,1.5,Calm,Calm,-,N/A,,Scattered Clouds,0,2012-09-22 02:55:00
10:15 PM,32.0,32.0,100,29.75,1.5,Calm,Calm,-,N/A,,Mostly Cloudy,0,2012-09-22 03:15:00
10:35 PM,32.0,32.0,100,29.75,7.0,Calm,Calm,-,N/A,,Mostly Cloudy,0,2012-09-22 03:35:00
10:55 PM,32.0,32.0,100,29.74,3.0,Calm,Calm,-,N/A,,Mostly Cloudy,0,2012-09-22 03:55:00
11:15 PM,33.8,33.8,100,29.74,10.0,South,4.6,-,N/A,,Overcast,170,2012-09-22 04:15:00
11:35 PM,35.6,35.6,100,29.73,10.0,Calm,Calm,-,N/A,,Mostly Cloudy,0,2012-09-22 04:35:00
11:55 PM,33.8,33.8,100,29.73,1.8,Calm,Calm,-,N/A,,Scattered Clouds,0,2012-09-22 04:55:00